Date String (YYYY-MM-DD hh:mm:ss) UTC,Instrument flags,absolute air pressure of the measurement (hPa),sample flow rate (lpm),inlet stack bypass flow (lpm),air temperature of the measurement (°C),ambient temperature measured by the external sensor (°C),aerosol sample conditioner tube jacket temperature (°C),OPC LED temperature (°C),internal box temperature (°C),relative humidity of the measurement (%),span deviation,mass concentration of particles derived from Lorenz-Mie calculation of OPC scattering (μg/m³),mass concentration of particles derived from Lorenz-Mie calculation of OPC scattering (μg/m³),mass concentration of particles derived from Lorenz-Mie calculation of OPC scattering (μg/m³)
DateTimeUTC,F1_M11,P_M11,Q1_M11,Q2_M11,T1_M11,T2_M11,T3_M11,T4_M11,T5_M11,U1_M11,ZSPAN_M11,X2_M11,X0_M11,X1_M11
2024-05-21 04:00:00,SystemResetWarning,0824.2,5.00,000.00,030.2,029.3,000.0,038.8,031.9,016.7,0000.0,0001.04,0004.42,0000.53
2024-05-21 04:01:00,SystemResetWarning,0824.3,5.00,000.00,030.2,029.3,000.0,038.8,031.9,016.6,0000.0,0001.04,0004.72,0000.51
2024-05-21 04:02:00,SystemResetWarning,0824.2,5.00,000.00,030.2,029.3,000.0,038.7,031.9,016.5,0000.0,0000.99,0004.76,0000.51
2024-05-21 04:03:00,SystemResetWarning,0824.2,5.00,000.00,030.2,029.3,000.0,038.7,031.9,016.4,0000.0,0001.02,0004.87,0000.49
2024-05-21 04:04:00,SystemResetWarning,0824.1,5.01,000.00,030.2,029.3,000.0,038.7,031.9,016.4,0000.0,0001.00,0004.85,0000.48
2024-05-21 04:05:00,SystemResetWarning,0824.1,5.00,000.00,030.2,029.3,000.0,038.7,031.9,016.5,0000.0,0000.97,0004.76,0000.46
2024-05-21 04:06:00,SystemResetWarning,0824.1,5.00,000.00,030.1,029.3,000.0,038.7,031.9,016.5,0000.0,0000.95,0004.56,0000.45
2024-05-21 04:07:00,SystemResetWarning,0824.1,5.00,000.00,030.1,029.3,000.0,038.7,031.9,016.5,0000.0,0000.94,0004.37,0000.46
2024-05-21 04:08:00,SystemResetWarning,0824.1,5.00,000.00,030.1,029.3,000.0,038.7,031.8,016.6,0000.0,0000.93,0004.48,0000.44
2024-05-21 04:09:00,SystemResetWarning,0824.1,5.00,000.00,030.1,029.3,000.0,038.7,031.8,016.6,0000.0,0000.93,0004.48,0000.44
2024-05-21 04:10:00,SystemResetWarning,0824.2,5.00,000.00,030.1,029.2,000.0,038.7,031.8,016.6,0000.0,0000.88,0003.68,0000.44
2024-05-21 04:11:00,SystemResetWarning,0824.3,5.00,000.00,030.1,029.2,000.0,038.7,031.8,016.6,0000.0,0000.86,0002.73,0000.44
2024-05-21 04:12:00,SystemResetWarning,0824.3,5.00,000.00,030.1,029.2,000.0,038.7,031.8,016.6,0000.0,0000.85,0002.93,0000.45
2024-05-21 04:13:00,SystemResetWarning,0824.4,4.99,000.00,030.1,029.2,000.0,038.6,031.7,016.7,0000.0,0000.88,0002.94,0000.45
2024-05-21 04:14:00,SystemResetWarning,0824.4,4.99,000.00,030.1,029.2,000.0,038.6,031.8,016.7,0000.0,0000.87,0003.76,0000.45
2024-05-21 04:15:00,SystemResetWarning,0824.3,5.00,000.00,030.1,029.2,000.0,038.6,031.8,016.7,0000.0,0000.88,0004.34,0000.45
2024-05-21 04:16:00,SystemResetWarning,0824.4,5.01,000.00,030.1,029.2,000.0,038.6,031.7,016.7,0000.0,0000.90,0004.39,0000.47
2024-05-21 04:17:00,SystemResetWarning,0824.4,5.00,000.00,030.0,029.2,000.0,038.6,031.7,016.7,0000.0,0000.90,0004.28,0000.47
2024-05-21 04:18:00,SystemResetWarning,0824.4,5.01,000.00,030.0,029.2,000.0,038.6,031.7,016.7,0000.0,0000.94,0004.23,0000.46
2024-05-21 04:19:00,SystemResetWarning,0824.4,5.00,000.00,030.0,029.2,000.0,038.6,031.7,016.7,0000.0,0000.98,0004.73,0000.47
2024-05-21 04:20:00,SystemResetWarning,0824.4,4.99,000.00,030.0,029.2,000.0,038.6,031.7,016.7,0000.0,0000.99,0004.74,0000.47
2024-05-21 04:21:00,SystemResetWarning,0824.4,4.99,000.00,030.0,029.2,000.0,038.6,031.7,016.7,0000.0,0000.97,0004.68,0000.46
2024-05-21 04:22:00,SystemResetWarning,0824.4,4.99,000.00,030.0,029.1,000.0,038.6,031.7,016.7,0000.0,0000.96,0004.66,0000.46
2024-05-21 04:23:00,SystemResetWarning,0824.4,5.00,000.00,030.0,029.1,000.0,038.6,031.7,016.5,0000.0,0000.97,0004.38,0000.45
2024-05-21 04:24:00,SystemResetWarning,0824.4,5.01,000.00,030.0,029.1,000.0,038.6,031.7,016.4,0000.0,0000.94,0004.25,0000.43
2024-05-21 04:25:00,SystemResetWarning,0824.4,5.00,000.00,030.0,029.1,000.0,038.5,031.7,016.4,0000.0,0000.89,0004.86,0000.42
2024-05-21 04:26:00,SystemResetWarning,0824.4,5.00,000.00,030.0,029.1,000.0,038.5,031.7,016.4,0000.0,0000.84,0004.25,0000.41
2024-05-21 04:27:00,SystemResetWarning,0824.4,5.00,000.00,030.0,029.1,000.0,038.5,031.7,016.4,0000.0,0000.80,0004.18,0000.40
2024-05-21 04:28:00,SystemResetWarning,0824.3,4.99,000.00,030.0,029.1,000.0,038.5,031.7,016.5,0000.0,0000.77,0004.10,0000.39
2024-05-21 04:29:00,SystemResetWarning,0824.3,4.99,000.00,030.0,029.1,000.0,038.5,031.7,016.5,0000.0,0000.73,0004.00,0000.37
2024-05-21 04:30:00,SystemResetWarning,0824.3,5.00,000.00,029.9,029.1,000.0,038.5,031.7,016.5,0000.0,0000.69,0003.11,0000.36
2024-05-21 04:31:00,SystemResetWarning,0824.3,5.01,000.00,029.9,029.1,000.0,038.5,031.7,016.5,0000.0,0000.68,0003.11,0000.35
2024-05-21 04:32:00,SystemResetWarning,0824.3,5.00,000.00,029.9,029.1,000.0,038.5,031.7,016.5,0000.0,0000.66,0003.09,0000.34
2024-05-21 04:33:00,SystemResetWarning,0824.3,5.00,000.00,029.9,029.1,000.0,038.5,031.7,016.5,0000.0,0000.65,0003.13,0000.33
2024-05-21 04:34:00,SystemResetWarning,0824.3,5.00,000.00,029.9,029.1,000.0,038.5,031.6,016.4,0000.0,0000.65,0004.72,0000.32
2024-05-21 04:35:00,SystemResetWarning,0824.4,4.99,000.00,029.9,029.0,000.0,038.5,031.6,016.4,0000.0,0000.64,0005.13,0000.32
2024-05-21 04:36:00,SystemResetWarning,0824.4,4.99,000.00,029.9,029.0,000.0,038.5,031.6,016.5,0000.0,0000.61,0004.10,0000.32
2024-05-21 04:37:00,SystemResetWarning,0824.5,5.01,000.00,029.9,029.0,000.0,038.4,031.6,016.5,0000.0,0000.60,0003.43,0000.31
2024-05-21 04:38:00,SystemResetWarning,0824.6,5.00,000.00,029.9,029.0,000.0,038.4,031.6,016.5,0000.0,0000.61,0003.45,0000.31
2024-05-21 04:39:00,SystemResetWarning,0824.6,5.00,000.00,029.9,029.0,000.0,038.4,031.6,016.6,0000.0,0000.63,0003.50,0000.31
2024-05-21 04:40:00,SystemResetWarning,0824.7,5.00,000.00,029.9,029.0,000.0,038.4,031.6,016.5,0000.0,0000.67,0003.91,0000.30
2024-05-21 04:41:00,SystemResetWarning,0824.7,5.01,000.00,029.9,029.0,000.0,038.4,031.6,016.5,0000.0,0000.63,0004.06,0000.29
2024-05-21 04:42:00,SystemResetWarning,0824.7,5.01,000.00,029.9,029.0,000.0,038.4,031.6,016.5,0000.0,0000.59,0004.09,0000.28
2024-05-21 04:43:00,SystemResetWarning,0824.7,5.01,000.00,029.9,029.0,000.0,038.4,031.5,016.5,0000.0,0000.58,0004.11,0000.27
2024-05-21 04:44:00,SystemResetWarning,0824.8,5.00,000.00,029.8,029.0,000.0,038.4,031.5,016.5,0000.0,0000.58,0004.04,0000.27
2024-05-21 04:45:00,SystemResetWarning,0824.8,4.99,000.00,029.8,029.0,000.0,038.4,031.5,016.5,0000.0,0000.54,0002.47,0000.27
2024-05-21 04:46:00,SystemResetWarning,0824.9,4.99,000.00,029.8,029.0,000.0,038.4,031.5,016.6,0000.0,0000.55,0001.86,0000.27
2024-05-21 04:47:00,SystemResetWarning,0824.9,5.00,000.00,029.8,029.0,000.0,038.4,031.5,016.6,0000.0,0000.56,0001.85,0000.27
2024-05-21 04:48:00,SystemResetWarning,0824.9,5.00,000.00,029.8,029.0,000.0,038.4,031.5,016.6,0000.0,0000.59,0002.14,0000.27
2024-05-21 04:49:00,SystemResetWarning,0824.9,5.01,000.00,029.8,028.9,000.0,038.4,031.5,016.6,0000.0,0000.58,0003.10,0000.27
2024-05-21 04:50:00,SystemResetWarning,0824.9,4.99,000.00,029.8,028.9,000.0,038.4,031.5,016.6,0000.0,0000.60,0003.57,0000.26
2024-05-21 04:51:00,SystemResetWarning,0824.9,4.99,000.00,029.8,028.9,000.0,038.4,031.5,016.6,0000.0,0000.55,0003.22,0000.26
2024-05-21 04:52:00,SystemResetWarning,0824.9,5.00,000.00,029.8,028.9,000.0,038.4,031.5,016.7,0000.0,0000.56,0002.97,0000.27
2024-05-21 04:53:00,SystemResetWarning,0824.9,5.00,000.00,029.8,028.9,000.0,038.3,031.5,016.7,0000.0,0000.59,0002.90,0000.28
2024-05-21 04:54:00,SystemResetWarning,0824.9,5.00,000.00,029.8,028.9,000.0,038.3,031.5,016.7,0000.0,0000.59,0002.83,0000.29
2024-05-21 04:55:00,SystemResetWarning,0824.9,5.00,000.00,029.8,028.9,000.0,038.3,031.5,016.8,0000.0,0000.60,0002.85,0000.29
2024-05-21 04:56:00,SystemResetWarning,0824.9,4.99,000.00,029.8,028.9,000.0,038.3,031.5,016.8,0000.0,0000.58,0002.81,0000.29
2024-05-21 04:57:00,SystemResetWarning,0824.9,5.00,000.00,029.8,028.9,000.0,038.3,031.5,016.8,0000.0,0000.58,0002.79,0000.30
2024-05-21 04:58:00,SystemResetWarning,0824.9,5.00,000.00,029.8,028.9,000.0,038.3,031.5,016.8,0000.0,0000.62,0002.90,0000.30
2024-05-21 04:59:00,SystemResetWarning,0824.9,5.00,000.00,029.7,028.9,000.0,038.3,031.5,016.9,0000.0,0000.59,0003.45,0000.30
